Regional Weather Roundup
Issued by NWS Sioux Falls, SD

Home | Current Version | Previous Version | Text Only | Print | Product List | Glossary Off
Versions: 1 2 3 4 5 6 7 8 9 10 11 12 13 14 15 16 17 18 19 20 21 22 23 24 25 26 27 28 29 30 31 32 33 34 35 36 37 38 39 40 41 42 43 44 45 46 47 48 49 50

000
ASUS43 KFSD 031902
RWRFSD

WEATHER ROUNDUP FOR SE SOUTH DAKOTA/SW MINNESOTA/NW IOWA
NATIONAL WEATHER SERVICE SIOUX FALLS SD
200 PM CDT FRI JUL 03 2015

NOTE: "FAIR" INDICATES FEW OR NO CLOUDS BELOW 12,000 FEET WITH NO
SIGNIFICANT WEATHER AND OR OBSTRUCTIONS TO VISIBILITY.


SDZ038>040-050-052>070-032000-
SOUTHEAST SOUTH DAKOTA

CITY           SKY/WX    TMP DP  RH WIND       PRES   REMARKS
BROOKINGS      MOSUNNY   77  64  65 NW3       30.00F
CHAMBERLAIN    MOSUNNY   78  64  61 CALM      29.99F
HURON          MOSUNNY   79  67  66 CALM      29.97F
MADISON        FAIR      73  66  78 SW7       30.01S
MITCHELL       SUNNY     77  65  66 CALM      29.99F
SIOUX FALLS    PTSUNNY   74  62  66 CALM      30.01R
WINNER         FAIR      82  55  39 CALM      30.00F
YANKTON        CLOUDY    73  63  68 SW5       29.99F
$$

MNZ071-072-080-081-089-090-097-098-032000-
SOUTHWEST MINNESOTA

CITY           SKY/WX    TMP DP  RH WIND       PRES   REMARKS
FAIRMONT       SUNNY     75  41  29 CALM      29.98F
JACKSON        SUNNY     77  55  47 W6        30.00F
LUVERNE        SUNNY     77  55  47 W6        30.01S
MARSHALL       SUNNY     79  61  53 CALM      29.96S
MONTEVIDEO     MOSUNNY   82  64  54 CALM      29.96S
PIPESTONE      SUNNY     75  61  60 NW6       30.00F
REDWOOD FALLS  SUNNY     78  54  43 W6        29.96F
TRACY          SUNNY     78  56  47 SW6       29.98F
WINDOM         SUNNY     75  55  50 CALM      29.99F
WORTHINGTON    SUNNY     73  55  53 NW3       30.00F
$$

IAZ001>003-012>014-020>022-031-032-NEZ013-014-SDZ071-032000-
NORTHWEST IOWA

CITY           SKY/WX    TMP DP  RH WIND       PRES   REMARKS
DENISON        SUNNY     73  54  49 SW5       30.00S
ESTHERVILLE    SUNNY     74  56  53 VRB3      29.99F
SIOUX CITY     SUNNY     76  55  48 S3        30.00F
SPENCER        SUNNY     77  52  41 CALM      30.00F
$$

ABBREVIATIONS USED IN REMARKS
   TC - TEMPERATURE IN CELSIUS
  WCI - WIND CHILL INDEX
   HX - HEAT INDEX
  VSB - VISIBILITY




USA.gov is the U.S. government's official web portal to all federal, state and local government web resources and services.